Theta_e
349 349 347 346 346 347 349 349 344 341 341 341 339 341 340 344 342 338 339 335 335 340 334 335 335 333 333 333 334 333 332 333 340 339 340 343 343 342 340 340 341 344 343
336 337 337 338 340 343 342 341 339 336 336 335 335 334 334 336 340 336 340 340 338 336 331 334 337 337 336 334 336 339 336 331 338 341 339 342 343 342 342 342 341 343 344
326 327 333 337 338 340 340 340 339 339 337 337 337 342 344 338 335 337 337 337 338 333 335 338 337 336 337 339 334 336 336 332 336 343 342 339 343 345 341 343 342 344 344
326 325 326 326 328 329 332 334 335 335 337 341 342 343 342 341 341 340 338 340 339 343 343 343 340 338 335 338 338 335 330 333 336 339 341 341 341 342 343 342 344 343 343
328 329 329 328 327 328 331 333 331 331 333 334 334 335 338 340 341 340 343 344 341 336 334 339 334 334 339 339 338 335 329 334 338 335 339 340 341 341 341 341 341 341 344
331 331 330 330 330 330 332 334 334 333 333 333 333 333 331 329 330 333 338 337 335 336 339 337 334 338 339 338 337 335 332 333 336 336 337 338 339 338 340 340 339 338 341
334 332 331 329 329 329 332 332 333 331 331 332 333 331 330 330 330 330 331 331 332 335 336 338 340 338 337 337 337 335 333 333 335 337 338 337 338 338 336 337 337 338 340
331 328 326 326 326 327 329 331 332 330 330 331 331 329 329 329 330 330 330 331 332 331 330 330 333 337 337 337 336 335 334 334 336 337 335 336 336 336 337 336 337 336 336
326 326 327 328 328 326 330 331 330 330 331 329 328 329 331 331 330 332 332 332 333 332 332 332 332 332 335 335 336 333 333 335 336 335 335 336 336 335 334 334 334 334 335
326 326 327 328 329 330 329 329 330 331 330 329 331 331 332 332 332 332 332 333 333 333 333 333 332 332 336 335 332 333 332 335 335 334 335 334 334 333 333 333 332 332 331
326 326 326 327 327 327 328 329 329 330 331 331 329 329 330 332 332 332 333 332 333 334 334 333 332 333 334 330 333 333 331 334 334 334 334 333 332 332 333 332 331 330 331
326 325 326 326 329 328 330 331 331 332 332 331 329 330 331 330 333 332 333 332 333 334 334 335 335 334 328 330 333 334 335 334 334 334 333 332 331 332 331 330 329 328 328
325 324 325 326 326 327 327 329 331 331 329 331 328 330 332 331 331 332 331 331 332 333 334 334 334 331 330 333 334 334 334 333 334 334 333 332 331 331 330 329 328 328 326
322 323 323 324 326 327 327 328 328 328 329 329 330 327 328 330 331 332 331 332 331 331 331 331 332 332 333 334 334 334 333 332 332 333 332 331 331 330 330 329 329 327 324
318 320 321 322 324 325 326 326 327 327 327 327 328 329 327 330 331 331 331 331 331 331 330 331 334 335 334 334 334 334 333 333 332 332 331 331 331 331 330 329 329 328 325
315 319 319 320 322 323 324 324 325 326 327 327 328 329 329 329 331 331 330 330 331 331 332 332 332 333 334 333 333 333 334 333 332 331 330 330 330 331 330 330 329 329 329
316 319 318 320 321 322 323 323 324 326 325 325 327 329 329 330 331 331 332 332 331 332 335 333 332 332 335 333 332 332 332 332 332 332 331 330 330 330 330 329 329 329 329
316 317 317 319 319 321 321 321 322 322 322 324 325 325 328 329 330 330 331 332 332 332 332 331 331 333 331 332 332 331 332 332 331 331 331 331 330 330 332 330 329 330 330
311 313 315 317 318 318 318 318 319 319 320 321 323 324 326 327 328 330 330 330 330 331 331 331 331 332 332 333 332 332 331 332 331 331 331 331 331 330 331 331 331 330 330
308 308 310 311 312 314 315 315 316 317 317 317 317 318 321 324 324 324 324 327 329 329 329 329 328 329 331 331 333 332 332 331 332 331 331 330 331 331 331 331 331 331 331
309 308 306 308 307 307 308 311 312 314 314 314 314 315 317 318 318 318 319 321 322 324 325 327 328 328 328 329 330 331 332 332 332 331 332 331 331 331 331 332 330 331 331
309 309 308 307 307 306 305 305 306 307 306 305 306 308 311 314 315 315 315 316 317 319 320 321 324 327 328 327 328 329 331 332 332 331 331 331 331 331 331 331 330 329 328
309 309 308 308 307 307 306 304 303 303 304 304 304 303 300 300 301 305 310 312 314 314 316 317 318 321 322 327 328 329 329 330 330 331 332 332 332 330 331 332 330 330 329
309 308 308 308 307 307 306 306 304 303 303 303 303 303 302 301 300 300 299 300 302 307 311 313 314 314 315 316 318 325 327 328 330 330 331 331 331 331 331 332 332 331 330
310 309 308 308 308 307 307 306 305 304 303 302 302 302 302 301 301 301 300 300 300 300 300 300 303 308 312 313 314 318 319 326 329 329 329 330 330 331 331 331 331 331 330
310 309 309 308 308 307 307 307 306 305 304 303 303 302 302 301 301 301 301 301 301 301 301 300 300 300 300 301 305 311 314 317 322 325 327 328 330 330 330 331 330 330 329
Wind_Speed
10 13 13 13 11 11 14 15 16 22 29 36 39 43 45 48 44 43 37 31 29 33 30 34 32 28 28 27 29 31 34 35 38 42 38 28 30 32 32 31 30 32 34
23 23 23 20 15 13 17 22 27 30 31 33 31 27 29 32 32 38 33 32 33 35 39 33 32 28 28 30 27 29 32 36 35 38 36 36 34 29 30 31 31 28 28
25 23 20 17 17 17 19 21 23 24 27 27 27 27 26 24 21 23 26 34 36 36 36 34 32 30 29 35 34 29 31 36 34 38 40 34 34 28 27 29 29 29 31
24 24 25 22 21 23 24 25 27 28 27 24 24 26 28 29 29 32 38 38 37 35 35 35 36 35 40 40 37 34 34 35 32 32 35 34 32 31 30 30 30 29 31
21 22 25 26 24 28 29 28 27 28 27 25 25 26 27 28 30 32 31 32 34 34 38 42 35 36 38 37 36 35 33 32 33 34 32 29 32 29 32 30 29 27 27
19 23 25 25 26 29 29 30 30 29 28 27 28 32 33 31 32 31 30 36 40 43 42 41 44 40 39 35 36 35 33 33 35 35 34 32 32 32 26 27 27 26 29
25 28 30 31 32 32 31 31 31 32 33 31 33 36 37 36 34 32 30 32 35 35 35 37 37 37 36 34 34 35 33 33 34 33 31 31 28 30 24 23 23 26 28
31 33 33 32 31 29 29 29 28 29 31 33 36 36 36 37 36 36 32 33 35 35 37 39 39 38 37 34 33 30 30 31 33 32 31 26 25 22 21 21 20 24 26
31 32 33 31 30 29 28 28 30 31 32 33 36 37 37 38 34 30 30 31 31 36 37 37 37 36 35 34 29 28 28 28 26 26 23 21 21 19 19 19 24 25 31
30 30 30 27 28 28 28 29 31 31 33 34 35 34 32 32 30 29 29 29 31 33 35 34 35 34 31 29 26 27 26 25 25 22 18 16 15 15 16 16 18 23 27
31 32 30 27 27 26 28 28 28 28 29 31 34 32 32 30 29 25 21 21 26 30 31 29 29 29 27 26 25 28 26 23 22 18 15 13 11 12 12 8 2 8 23
32 30 30 28 26 24 24 24 24 24 27 30 34 37 37 34 26 23 18 20 22 26 26 25 24 21 21 23 25 26 24 21 21 19 18 14 11 12 7 6 1 8 14
32 31 30 29 27 26 25 24 24 25 28 32 37 43 38 30 25 22 18 21 19 20 22 18 19 19 20 22 24 24 25 24 21 22 21 15 10 13 16 14 12 7 5
31 30 28 29 26 24 23 22 25 26 27 30 35 39 30 28 20 17 16 17 14 8 8 15 22 20 20 21 22 23 26 27 21 18 16 13 13 18 22 21 16 18 24
29 27 25 25 24 24 22 24 24 23 24 25 27 31 31 19 17 18 18 14 10 10 16 21 17 17 19 19 23 24 27 28 27 24 18 15 16 20 21 24 20 16 20
28 26 24 26 25 24 25 26 23 22 19 19 22 23 24 31 23 14 14 14 15 16 7 11 14 15 16 21 24 26 27 26 26 25 19 19 18 20 23 26 23 22 20
25 24 24 24 24 25 24 24 26 25 25 23 23 20 23 23 24 19 12 8 6 11 4 5 6 9 14 16 21 24 22 21 21 22 20 23 20 16 25 26 27 23 22
23 22 22 22 23 23 23 23 22 25 29 31 27 27 24 21 20 18 16 13 7 6 3 1 3 4 8 12 21 24 22 21 20 21 20 23 22 22 21 25 31 27 25
25 25 23 21 21 21 22 24 25 25 24 27 30 32 28 21 16 16 13 14 10 4 2 2 3 4 6 8 12 18 22 23 22 22 23 23 27 23 22 22 27 30 26
23 24 23 23 23 23 24 26 25 24 24 26 29 30 30 30 30 26 21 14 8 4 1 2 3 6 5 6 7 8 14 27 24 22 23 25 25 25 21 21 22 24 24
20 21 24 20 21 23 22 21 24 25 25 26 27 28 28 29 30 31 31 31 24 18 11 3 3 2 4 6 6 8 11 15 18 18 21 23 27 29 23 21 21 21 21
19 18 19 20 19 20 21 19 19 19 21 26 27 28 28 29 29 31 32 32 30 29 24 20 11 2 5 5 6 7 8 12 14 17 18 23 24 24 29 23 24 23 22
17 18 18 18 19 19 18 19 20 20 19 20 21 25 29 31 30 29 28 29 29 29 27 26 23 19 13 5 9 9 11 12 12 14 18 21 25 27 26 26 26 26 25
14 15 17 17 18 18 19 18 18 19 20 19 20 21 23 26 28 29 30 29 27 27 26 26 25 24 22 17 12 0 11 15 14 17 15 20 24 28 27 26 27 29 29
12 13 14 16 15 16 16 17 17 18 18 19 19 20 21 22 24 26 26 27 26 26 26 26 26 24 21 20 20 17 12 14 18 18 16 18 20 24 28 31 25 26 31
11 10 11 13 13 13 14 15 15 16 16 17 20 21 22 21 22 23 24 24 24 23 23 23 23 23 23 22 21 19 15 14 14 10 14 21 18 18 21 27 28 27 34
Wind_Direction
9 357 349 336 325 320 315 303 294 293 290 286 282 275 274 272 271 254 248 248 249 248 252 274 264 269 273 276 279 284 281 277 269 277 276 267 264 270 270 268 264 260 254
10 2 356 350 342 323 310 301 296 296 295 292 284 285 286 271 261 240 254 249 247 251 251 253 261 270 279 279 275 274 275 281 275 272 276 273 268 266 268 264 263 258 257
354 346 342 335 324 316 313 312 311 314 312 307 288 286 294 293 280 248 255 251 247 247 247 249 260 270 277 278 273 273 275 280 272 270 273 273 269 260 265 262 257 257 257
351 346 342 336 325 319 314 310 308 308 307 307 300 300 288 286 277 270 264 256 249 247 250 255 262 273 271 267 272 282 278 277 273 268 271 266 264 263 263 263 260 258 255
342 343 337 330 330 330 323 319 315 312 310 306 304 302 298 294 288 278 271 268 257 263 269 265 258 277 267 268 272 275 275 274 267 267 265 268 259 262 260 259 259 266 261
329 331 328 321 313 312 309 309 310 312 311 304 305 307 303 293 288 286 286 271 269 273 273 269 269 271 259 266 268 269 271 267 265 264 264 262 263 261 262 260 256 255 246
318 321 320 314 311 309 303 302 303 304 304 301 299 301 300 298 293 286 281 278 277 276 274 271 269 265 266 266 268 268 266 262 257 258 260 262 258 258 254 253 251 243 240
317 320 322 324 324 320 313 310 307 305 303 302 302 302 300 297 294 291 286 279 278 276 274 271 268 267 263 264 266 266 262 261 254 253 255 253 253 253 252 254 250 253 250
327 329 331 330 326 319 315 313 311 308 306 306 306 306 304 302 297 295 289 282 276 273 272 270 268 265 263 260 257 257 259 258 251 248 242 237 235 237 238 245 249 248 236
334 337 337 334 332 330 320 314 313 310 310 311 310 308 305 301 301 297 293 285 279 275 271 267 263 258 254 255 251 246 245 248 241 236 224 229 235 236 237 247 259 244 226
333 334 334 331 328 328 325 323 320 318 315 313 314 314 312 310 304 300 296 289 283 279 275 270 263 254 247 243 237 238 238 237 225 217 213 213 220 223 224 230 215 235 239
333 337 338 342 341 335 328 328 330 333 329 330 329 322 315 314 310 306 297 293 292 276 269 264 259 245 243 235 235 234 221 212 204 202 202 205 212 201 173 140 109 240 241
334 337 341 341 341 341 341 340 340 341 340 340 335 327 317 315 307 313 304 301 300 277 263 256 246 244 240 233 230 220 208 199 201 204 202 197 192 166 148 129 121 130 148
337 340 341 341 350 357 357 349 344 346 347 337 340 345 334 315 312 309 306 310 288 306 257 255 251 250 239 237 227 206 204 195 203 218 193 175 169 168 161 149 133 133 115
341 343 343 348 354 353 353 348 349 342 337 340 341 353 343 349 332 303 291 298 286 281 252 259 242 229 226 213 198 202 202 196 198 197 193 187 179 179 174 166 150 144 148
343 345 348 353 352 349 346 344 351 349 352 348 349 350 352 352 347 324 297 291 268 279 251 233 233 229 218 209 199 195 196 192 194 195 202 198 188 188 183 179 176 164 164
353 352 355 356 354 352 352 353 350 348 351 0 2 3 359 353 8 13 7 348 295 273 197 221 226 213 211 214 199 195 191 200 198 201 204 196 195 194 192 187 186 184 181
3 1 5 357 354 355 358 1 5 8 1 3 13 10 9 360 16 21 35 35 68 107 77 164 218 250 228 225 218 210 204 206 205 204 205 200 198 198 194 196 193 192 192
8 7 6 4 4 6 9 11 12 12 11 11 13 19 17 16 16 24 33 53 34 21 17 311 296 296 268 253 239 226 227 221 214 213 211 212 209 202 199 199 195 199 194
13 13 12 12 14 14 18 20 19 21 25 26 26 23 25 32 35 32 31 34 34 30 258 236 289 299 289 297 275 245 236 231 222 223 227 210 209 197 193 190 191 194 196
13 14 17 17 17 17 19 21 24 26 29 32 34 33 32 35 35 37 38 36 30 27 27 340 180 221 291 307 310 276 251 237 235 231 229 215 202 201 194 191 191 188 189
16 15 16 18 17 18 21 19 18 20 23 29 32 34 33 36 38 38 37 39 36 32 30 32 23 251 205 249 261 269 280 254 234 216 217 211 207 204 201 195 193 191 190
17 16 15 15 16 15 17 21 23 25 23 23 22 26 31 33 37 38 36 32 33 35 33 35 31 28 8 237 235 250 253 256 250 248 225 217 205 206 200 202 201 200 202
11 13 14 12 12 16 18 19 20 21 25 24 24 24 27 28 30 33 36 38 36 32 31 32 33 31 31 27 26 339 235 250 245 241 224 227 222 217 207 208 209 209 209
2 4 7 9 11 12 12 16 18 20 22 23 24 25 24 23 26 28 30 30 31 32 32 32 32 28 24 19 27 27 332 274 244 241 233 233 222 224 225 217 214 213 214
350 350 355 360 2 3 9 12 13 13 17 18 20 20 20 17 16 17 18 20 22 25 26 26 25 24 23 23 19 7 19 9 296 249 238 230 227 219 223 219 220 226 228